Location: Baix
(44.7118°N, 4.7648°E)
Time: 06:28:41
(UTC+00:00)

Vanguard 1 - Pass Details

Date: 02 December 2020
Orbit: 648 x 3834 km, 34.3° (Epoch: 21 January)

Event Time Altitude Azimuth Distance (km) Brightness Sun altitude
Rises 04:59:53 0° 243° (WSW) 3,290 - -20.6°
Reaches altitude 10° 05:02:05 10° 234° (SW) 2,553 - -20.2°
Exits shadow 05:03:06 16° 228° (SW) 2,258 11.6 -20.0°
Maximum altitude 05:07:35 38° 167° (SSE) 1,768 11.5 -19.2°
Drops below altitude 10° 05:16:40 10° 105° (ESE) 4,230 14.6 -17.7°
Sets 05:21:27 0° 99° (E) 5,786 15.8 -16.8°
